CDT,Max TemperatureF,Mean TemperatureF,Min TemperatureF,Max Dew PointF,MeanDew PointF,Min DewpointF,Max Humidity, Mean Humidity, Min Humidity, Max Sea Level PressureIn, Mean Sea Level PressureIn, Min Sea Level PressureIn, Max VisibilityMiles, Mean VisibilityMiles, Min VisibilityMiles, Max Wind SpeedMPH, Mean Wind SpeedMPH, Max Gust SpeedMPH,PrecipitationIn, CloudCover, Events, WindDirDegrees
2013-3-1,30,18,6,16,13,3,92,69,47,30.36,30.32,30.24,10,10,10,15,8,21,0.00,4,,64
2013-3-2,30,12,-7,12,4,-13,92,67,37,30.35,30.27,30.17,10,10,10,6,1,,0.00,1,,326
2013-3-3,32,16,1,7,1,-6,92,53,21,30.17,30.09,30.02,10,10,10,10,2,,0.00,2,,161
2013-3-4,30,24,19,23,11,3,86,56,34,30.06,30.02,29.99,10,9,4,15,6,21,0.00,7,Rain-Snow,130
2013-3-5,28,21,14,27,21,14,100,88,74,30.28,30.12,30.02,10,4,1,14,6,21,0.00,7,Snow,67
2013-3-6,28,16,5,19,12,0,100,79,55,30.39,30.34,30.28,10,9,0,12,4,16,0.04,2,Fog-Snow,341
2013-3-7,32,14,-5,16,6,-11,92,68,48,30.39,30.35,30.30,10,10,7,8,1,,0.01,1,,173
2013-3-8,37,24,10,27,21,7,93,75,60,30.32,30.25,30.10,10,10,7,13,5,,0.06,1,,183
2013-3-9,33,32,32,34,31,27,100,94,80,30.09,29.86,29.72,10,4,1,12,6,17,0.26,8,Rain-Snow,161
2013-3-10,33,32,30,34,28,23,100,87,75,29.97,29.90,29.78,10,10,0,20,10,28,0.00,8,Fog,39
2013-3-11,30,28,26,27,23,19,93,80,64,29.88,29.77,29.72,10,10,7,14,10,21,0.00,8,Snow,25
2013-3-12,28,24,19,21,15,9,93,70,43,30.15,29.91,29.78,10,10,7,18,8,26,0.00,6,Snow,346
2013-3-13,32,20,8,12,8,5,85,59,32,30.33,30.26,30.15,10,10,10,10,5,17,0.00,0,,306
2013-3-14,37,27,17,27,21,12,93,77,63,30.23,30.11,30.00,10,9,2,10,4,,0.01,4,Snow,213
2013-3-15,32,26,19,30,22,16,100,79,55,29.98,29.94,29.89,10,6,1,14,6,20,0.01,7,Snow,58
2013-3-16,24,17,10,16,9,0,92,68,46,30.22,30.07,29.94,10,9,2,16,8,23,0.00,3,Snow,354
2013-3-17,26,8,-9,14,0,-15,85,58,34,30.26,30.13,29.90,10,10,10,13,5,18,0.00,4,,158
2013-3-18,28,21,14,23,16,9,93,79,68,29.90,29.65,29.55,10,6,0,21,13,28,0.00,8,Snow,225
2013-3-19,26,17,8,7,2,-6,79,57,33,30.10,29.91,29.69,10,10,7,21,14,29,0.00,2,,310
2013-3-20,21,12,3,5,-1,-6,85,58,42,30.12,30.09,30.05,10,10,7,17,10,23,0.00,2,,330
2013-3-21,28,12,-5,10,2,-13,85,64,43,30.10,30.06,30.01,10,10,10,8,1,,0.00,1,,335
2013-3-22,35,18,0,14,7,-6,85,61,32,30.08,30.05,30.01,10,10,10,6,1,,0.00,0,,329
2013-3-23,37,26,15,23,18,12,86,65,48,30.15,30.10,30.06,10,10,10,8,2,,0.00,5,,98
2013-3-24,32,28,23,23,20,18,86,70,60,30.11,30.05,30.00,10,10,10,15,6,20,0.00,5,,63
2013-3-25,33,24,14,23,17,12,93,68,52,30.18,30.10,30.03,10,10,10,16,6,30,0.00,3,,20
2013-3-26,37,32,28,25,21,18,80,62,45,30.27,30.23,30.18,10,10,10,8,2,,0.00,8,,9
2013-3-27,41,34,26,27,20,14,86,62,33,30.32,30.30,30.28,10,10,10,8,1,,0.00,5,,293
2013-3-28,42,28,14,21,17,12,93,61,31,30.34,30.31,30.26,10,10,10,7,1,,0.00,0,,260
2013-3-29,46,32,19,32,24,16,93,68,42,30.29,30.22,30.08,10,10,10,13,3,,0.00,3,,193
2013-3-30,50,42,35,37,35,32,100,82,58,30.08,29.87,29.80,10,7,1,10,8,16,0.47,5,Rain,257
2013-3-31,35,30,26,32,22,9,100,69,41,30.04,29.83,29.73,10,9,2,23,10,31,0.00,5,Snow,325